DW4277 Weather Reports


Display with metric or nautical units.
time (UTC)temp
F
wind
direction
speed
MPH
gust
MPH
rain 1hr
in
rain 24hr
in
rain mn
in
humidity
%
barometer
mb
20260831101529 81 330 29.0 62.0 0.00 0.00 0.00 47 1013.9
20260831100027 82 330 24.0 51.0 0.00 0.00 0.00 47 1013.9
20260831094529 81 344 21.0 41.0 0.00 0.00 0.00 52 1013.9
20260831093027 82 346 12.0 27.0 0.00 0.00 0.00 52 1013.9
20260831091519 81 336 12.0 36.0 0.00 0.00 0.00 51 1013.8
20260831090018 81 340 24.0 35.0 0.00 0.00 0.00 49 1013.7
20260831084531 81 358 24.0 41.0 0.00 0.00 0.00 51 1013.7
20260831083012 81 9 15.0 32.0 0.00 0.00 0.00 50 1013.6
20260831081518 80 327 11.0 22.0 0.00 0.00 0.00 51 1013.5
20260831080004 79 360 0.0 9.0 0.00 0.00 0.00 52 1013.2
20260831074602 77 360 0.0 0.0 0.00 0.00 0.00 56 1012.9
20260831073138 76 358 1.0 12.0 0.00 0.00 0.00 57 1013.1
20260831071553 75 328 4.0 19.0 0.00 0.00 0.00 59 1013.1
20260831070049 74 240 1.0 8.0 0.00 0.00 0.00 61 1013.1
20260831064547 72 230 6.0 10.0 0.00 0.00 0.00 64 1013.1
20260831063039 71 201 0.0 0.0 0.00 0.00 0.00 69 1013.1
20260831061539 70 202 0.0 0.0 0.00 0.00 0.00 69 1013.0
20260831060043 69 201 0.0 0.0 0.00 0.00 0.00 69 1012.9
20260831054539 68 201 0.0 0.0 0.00 0.00 0.00 71 1012.8
20260831053035 67 201 0.0 0.0 0.00 0.00 0.00 74 1012.7
20260831051530 66 202 0.0 0.0 0.00 0.00 0.00 75 1012.7
20260831050040 65 201 0.0 0.0 0.00 0.00 0.00 77 1012.8
20260831044527 65 201 0.0 0.0 0.00 0.00 0.00 78 1012.7
20260831043028 64 202 0.0 0.0 0.00 0.00 0.00 78 1012.5
20260831041523 64 201 0.0 0.0 0.00 0.00 0.00 77 1012.5
20260831040040 64 201 0.0 0.0 0.00 0.00 0.00 77 1012.4
20260831034529 64 201 0.0 0.0 0.00 0.00 0.00 77 1012.3
20260831033020 64 202 0.0 0.0 0.00 0.00 0.00 77 1012.2
20260831031517 64 201 0.0 0.0 0.00 0.00 0.00 77 1012.2
20260831030036 64 202 0.0 0.0 0.00 0.00 0.00 78 1012.3
20260831024518 63 201 0.0 0.0 0.00 0.00 0.00 78 1012.3
20260831023014 64 201 0.0 0.0 0.00 0.00 0.00 77 1012.5
20260831021511 64 201 0.0 0.0 0.00 0.00 0.00 77 1012.5
20260831020010 65 201 0.0 0.0 0.00 0.00 0.00 76 1012.6
20260831014508 65 201 0.0 0.0 0.00 0.00 0.00 75 1012.7
20260831013006 66 201 0.0 0.0 0.00 0.00 0.00 74 1012.6
20260831011505 66 201 0.0 0.0 0.00 0.00 0.00 74 1012.6
20260831010005 66 201 0.0 0.0 0.00 0.00 0.00 73 1012.7
20260831004502 66 201 0.0 0.0 0.00 0.00 0.00 73 1012.8
20260831003100 66 201 0.0 0.0 0.00 0.00 0.00 73 1013.0
20260831001558 67 201 0.0 0.0 0.00 0.00 0.00 74 1013.0
20260830234601 68 201 0.0 0.0 0.00 0.00 0.00 73 1013.1
20260830233101 68 201 0.0 0.0 0.00 0.00 0.00 70 1013.1
20260830231552 68 201 0.0 0.0 0.00 0.00 0.00 69 1013.2
20260830230050 68 201 0.0 0.0 0.00 0.00 0.00 69 1013.3
20260830224547 69 201 0.0 0.0 0.00 0.00 0.00 70 1013.3
20260830223046 70 201 0.0 0.0 0.00 0.00 0.00 69 1013.3
20260830221548 70 201 0.0 0.0 0.00 0.00 0.00 69 1013.4
20260830220056 71 201 0.0 0.0 0.00 0.00 0.00 67 1013.4
20260830214538 72 201 0.0 0.0 0.00 0.00 0.00 68 1013.3
20260830213037 74 201 0.0 0.0 0.00 0.00 0.00 68 1013.3
20260830211537 74 201 0.0 0.0 0.00 0.00 0.00 60 1013.4
20260830210036 75 201 0.0 0.0 0.00 0.00 0.00 58 1013.3
20260830204549 75 201 0.0 0.0 0.00 0.00 0.00 56 1013.4
20260830203035 76 201 0.0 0.0 0.00 0.00 0.00 55 1013.3
20260830201534 77 201 0.0 0.0 0.00 0.00 0.00 54 1013.4
20260830200038 77 201 0.0 0.0 0.00 0.00 0.00 52 1013.4
20260830194539 77 201 0.0 0.0 0.00 0.00 0.00 50 1013.3
20260830193033 78 201 0.0 0.0 0.00 0.00 0.00 49 1013.3
20260830191611 78 201 0.0 0.0 0.00 0.00 0.00 48 1013.1
20260830190041 79 201 0.0 0.0 0.00 0.00 0.00 46 1013.1
20260830184536 80 201 0.0 0.0 0.00 0.00 0.00 45 1013.1
20260830183033 81 201 0.0 0.0 0.00 0.00 0.00 44 1013.0
20260830181531 82 201 0.0 0.0 0.00 0.00 0.00 43 1012.9
20260830180036 83 201 0.0 0.0 0.00 0.00 0.00 42 1012.8
20260830174532 84 201 0.0 0.0 0.00 0.00 0.00 41 1012.7
20260830173029 85 201 0.0 0.0 0.00 0.00 0.00 40 1012.6
20260830171529 85 201 1.0 9.0 0.00 0.00 0.00 39 1012.6
20260830170029 86 201 0.0 0.0 0.00 0.00 0.00 38 1012.5
20260830164528 87 201 3.0 14.0 0.00 0.00 0.00 37 1012.5
20260830163037 87 194 5.0 12.0 0.00 0.00 0.00 37 1012.4
20260830161525 87 194 0.0 15.0 0.00 0.00 0.00 37 1012.6
20260830160035 88 216 7.0 18.0 0.00 0.00 0.00 37 1012.7
20260830154526 88 208 1.0 19.0 0.00 0.00 0.00 36 1012.7
20260830153021 89 240 0.0 10.0 0.00 0.00 0.00 37 1012.8
20260830151521 89 257 2.0 15.0 0.00 0.00 0.00 36 1012.9
20260830150023 89 223 0.0 11.0 0.00 0.00 0.00 38 1012.9
20260830144524 88 249 0.0 7.0 0.00 0.00 0.00 37 1013.0
20260830143017 88 224 1.0 11.0 0.00 0.00 0.00 37 1013.1
20260830141516 88 254 0.0 4.0 0.00 0.00 0.00 38 1013.3
20260830140012 87 235 0.0 0.0 0.00 0.00 0.00 40 1013.4
20260830134511 86 235 2.0 13.0 0.00 0.00 0.00 40 1013.5
20260830133008 87 230 2.0 14.0 0.00 0.00 0.00 40 1013.6
20260830131513 87 212 7.0 25.0 0.00 0.00 0.00 38 1013.7
20260830130007 88 235 0.0 11.0 0.00 0.00 0.00 38 1013.8
20260830124506 88 223 0.0 18.0 0.00 0.00 0.00 39 1013.9
20260830123002 87 183 0.0 0.0 0.00 0.00 0.00 39 1014.0
20260830121600 87 137 9.0 15.0 0.00 0.00 0.00 39 1014.2
20260830120118 85 48 1.0 13.0 0.00 0.00 0.00 39 1014.2
20260830114557 86 113 2.0 10.0 0.00 0.00 0.00 39 1014.4
20260830113053 86 270 0.0 0.0 0.00 0.00 0.00 39 1014.5
20260830111550 85 7 0.0 15.0 0.00 0.00 0.00 40 1014.7
20260830110047 84 41 7.0 23.0 0.00 0.00 0.00 41 1014.8
20260830104546 84 86 4.0 11.0 0.00 0.00 0.00 42 1014.9
20260830103045 83 48 0.0 12.0 0.00 0.00 0.00 43 1015.0